RH
30 29 30 32 35 41 44 46 46 49 51 52 52 51 48 48 48 48 48 49 50 51 52 53 55 56 56 56 58 59 59 59 59 58 58 59 59 59 57 55 54 53 51
31 32 33 36 40 44 47 47 48 53 57 58 55 54 55 53 52 51 50 51 52 54 56 58 60 61 60 59 59 59 59 61 62 60 60 57 58 59 61 59 56 53 51
36 38 40 41 45 47 50 53 57 57 58 59 60 61 60 56 54 52 51 52 53 54 56 58 60 61 62 61 61 61 58 59 61 61 62 61 57 58 61 62 61 59 52
37 38 41 45 48 51 56 60 61 59 60 61 62 61 60 58 59 57 56 55 57 58 59 60 62 63 65 67 68 66 66 67 67 67 67 66 61 60 57 60 60 60 62
42 44 45 46 50 57 63 62 64 65 63 60 61 62 60 59 57 53 52 53 55 59 62 64 65 64 71 73 76 74 72 76 76 78 81 79 70 67 63 55 57 61 62
51 56 58 61 62 63 65 65 67 67 64 63 65 64 60 57 52 53 52 53 55 58 62 68 70 72 71 73 83 79 79 84 80 87 90 88 86 78 77 66 53 54 56
60 61 61 64 66 67 69 67 66 64 64 61 62 65 65 62 61 59 59 58 57 57 58 63 67 70 75 79 82 81 92 87 90 93 92 93 92 94 90 78 66 60 58
58 61 65 65 66 68 66 66 65 65 64 63 62 61 63 62 59 58 57 57 55 55 54 56 63 70 79 79 90 94 92 96 99 98 98 93 92 89 82 79 74 64 60
62 64 66 66 66 66 65 64 62 61 59 56 56 56 56 56 54 53 52 50 49 50 54 61 65 71 75 82 91 94 91 94 94 93 90 87 83 79 77 75 72 70 60
60 64 65 68 68 66 64 64 64 63 62 62 61 57 51 47 46 47 47 48 52 56 61 67 75 81 87 90 93 92 90 90 90 89 88 84 81 79 76 72 69 66 61
66 68 70 71 70 69 69 66 65 64 64 62 58 56 47 44 42 45 49 55 59 65 69 73 79 83 81 82 85 84 81 77 76 74 71 66 63 59 56 53 51 49 49
68 72 73 75 76 73 74 70 67 64 61 59 57 55 51 43 42 44 50 58 65 73 81 79 74 77 79 83 81 77 76 71 64 57 51 47 43 40 38 37 38 38 37
70 70 74 76 72 71 75 70 67 63 61 58 54 50 46 47 48 50 54 63 74 82 82 82 81 86 88 85 79 75 68 56 48 44 38 33 31 29 27 28 30 31 31
71 74 79 77 72 70 67 66 62 59 54 54 55 56 61 64 65 71 72 69 82 88 90 93 94 91 87 80 70 57 47 40 35 30 26 27 28 28 29 29 28 29 30
70 72 74 75 69 65 58 53 52 51 53 55 59 64 69 75 75 80 84 82 88 93 91 86 82 77 68 58 52 47 40 34 29 26 26 27 28 30 35 39 39 43 45
75 73 70 67 65 60 61 63 62 61 57 53 58 69 74 77 85 89 87 91 94 93 89 82 76 68 56 50 43 37 29 26 24 24 27 30 36 41 48 56 63 68 70
76 74 70 67 60 63 67 64 68 71 57 58 60 65 68 74 83 84 94 93 92 89 81 67 57 50 44 38 31 26 25 25 27 32 36 41 51 64 69 72 74 75 77
74 68 66 65 66 68 65 71 68 65 65 71 82 84 78 84 88 94 93 87 79 67 58 53 49 43 35 29 25 24 24 28 35 42 56 70 76 80 81 82 82 82 84
72 72 63 62 65 68 64 64 67 70 79 79 86 88 82 91 94 90 82 71 62 57 54 49 42 36 29 26 25 27 30 37 48 72 82 84 85 88 91 92 91 90 91
70 62 57 55 54 54 61 65 66 66 75 79 83 84 90 90 85 75 67 60 58 54 49 42 37 32 29 29 30 33 40 54 77 86 87 90 91 93 96 97 95 93 94
60 51 45 44 49 49 57 67 70 73 78 85 88 90 88 79 69 63 60 58 53 47 41 38 34 33 33 32 34 41 58 83 90 89 91 93 94 95 95 96 96 97 98
45 44 43 46 53 63 63 70 69 77 83 91 91 88 80 70 64 59 55 50 45 40 40 39 35 35 35 37 39 55 84 96 94 93 93 93 91 90 90 90 94 97 97
44 45 47 49 62 70 74 73 77 85 91 93 91 86 73 63 56 49 44 41 40 43 44 45 40 37 36 39 51 74 97 98 97 96 96 94 92 86 85 91 97 98 98
45 53 58 61 65 68 73 83 88 93 93 92 84 67 55 46 41 42 42 41 45 49 53 52 47 44 43 46 69 95 97 98 97 98 97 95 88 82 81 84 89 94 96
57 63 64 61 58 63 74 82 88 91 87 71 57 46 41 41 43 41 47 53 59 63 63 59 57 52 49 61 90 98 98 98 98 98 98 93 85 79 79 81 82 81 76
54 57 58 52 59 71 80 82 81 73 60 47 42 40 41 40 42 51 57 70 76 77 71 66 62 59 60 85 98 98 98 98 98 98 98 93 86 81 76 77 80 80 82